PROBA-1 1 26958U 01049B 26127.31259603 .00001648 00000+0 11029-3 0 9995 2 26958 97.9606 134.4214 0053563 261.0811 98.4350 15.07342203337468 CUTE-1 (CO-55) 1 27844U 03031E 26127.01196798 .00000266 00000+0 13408-3 0 9993 2 27844 98.6750 136.0875 0008553 310.1529 49.8900 14.24310076185815 CUBESAT XI-IV (CO-57) 1 27848U 03031J 26126.97982924 .00000220 00000+0 11591-3 0 9996 2 27848 98.6782 135.8017 0008787 330.5693 29.4990 14.23598617185514 APRIZESAT 4 1 35684U 09041D 26127.19033064 .00000779 00000+0 99265-4 0 9991 2 35684 98.1418 201.6944 0044683 94.6061 266.0258 14.83819760905286 APRIZESAT 3 1 35686U 09041F 26126.96862898 .00002556 00000+0 22479-3 0 9999 2 35686 98.2018 278.2343 0061322 201.7795 158.0817 14.96104470910211 PROBA-2 1 36037U 09059B 26127.25001487 .00000155 00000+0 46578-4 0 9991 2 36037 98.2450 311.1712 0014244 51.0559 309.1905 14.54844946875573 APRIZESAT 5 1 37792U 11044E 26127.26775936 .00000818 00000+0 11056-3 0 9993 2 37792 98.2442 59.1557 0053254 133.4360 227.1301 14.80991057792738 APRIZESAT 6 1 37793U 11044F 26127.30365468 .00000580 00000+0 89387-4 0 9993 2 37793 98.2385 36.9656 0042288 215.3646 262.2572 14.76860485791116 PROBA-V 1 39159U 13021A 26126.93214920 .00000068 00000+0 47881-4 0 9996 2 39159 98.3567 107.5811 0002998 248.3467 111.7393 14.23588123675248 APRIZESAT 7 1 39416U 13066A 26127.09652856 .00001425 00000+0 14654-3 0 9992 2 39416 97.7681 80.9171 0035629 350.1280 9.9235 14.91469660675106 APRIZESAT 8 1 39425U 13066K 26126.84187793 .00001093 00000+0 12410-3 0 9996 2 39425 97.8197 74.8971 0047395 62.8630 297.7408 14.87563386673526 BUGSAT-1 (TITA) 1 40014U 14033E 26127.29418089 .00004441 00000+0 23854-3 0 9996 2 40014 98.0407 217.4692 0027211 322.7573 37.1770 15.15178559649643 SAUDISAT 4 1 40016U 14033G 26127.26950510 .00000703 00000+0 99453-4 0 9991 2 40016 97.7529 274.8335 0044253 204.8781 155.0298 14.79484205640028 APRIZESAT 9 1 40018U 14033J 26127.27891266 .00000433 00000+0 71356-4 0 9998 2 40018 97.9000 261.4913 0065488 332.9221 26.8577 14.74167421637535 APRIZESAT 10 1 40019U 14033K 26127.24194643 .00000441 00000+0 76866-4 0 9991 2 40019 97.9591 255.1295 0079777 45.3094 315.4575 14.70847780636233 TECHDEMOSAT-1 (TDS-1) 1 40076U 14037H 26126.95529242 .00007252 00000+0 41870-3 0 9995 2 40076 98.3818 115.1082 0007809 58.7924 301.4069 15.12660893641996 TECHNOSAT 1 42829U 17042E 26127.28835750 .00002220 00000+0 16144-3 0 9999 2 42829 97.4249 286.5217 0016337 229.6000 130.3801 15.04711832480552 FLYING LAPTOP 1 42831U 17042G 26127.32046046 .00001788 00000+0 14466-3 0 9992 2 42831 97.4514 284.4787 0017685 262.9090 97.0124 15.00879376480321 HAWK-A 1 43765U 18099H 26127.12457268 .00005821 00000+0 23786-3 0 9999 2 43765 97.3940 179.9055 0036709 71.4855 289.0365 15.24130932406845 HAWK-B 1 43794U 18099AN 26127.09758419 .00005831 00000+0 25188-3 0 9998 2 43794 97.3989 179.3787 0034045 88.4395 272.0741 15.22345945406787 HAWK-C 1 43799U 18099AT 26127.12713486 .00007299 00000+0 26705-3 0 9998 2 43799 97.3916 180.6214 0042523 72.0855 288.5014 15.27486501407642 SALSAT 1 46495U 20068K 26127.25593857 .00006166 00000+0 22015-3 0 9997 2 46495 97.8867 127.8503 0011680 87.8520 272.4056 15.29201819309104 HAWK-2C 1 47502U 21006CT 26127.13241488 .00005434 00000+0 16655-3 0 9997 2 47502 97.2309 172.2695 0006444 3.9547 356.1746 15.34176791293200 HAWK-2A 1 47505U 21006CW 26127.13528279 .00005514 00000+0 16892-3 0 9998 2 47505 97.2353 172.9262 0006218 8.7995 351.3357 15.34188965293209 HAWK-2B 1 47508U 21006CZ 26127.06703438 .00006216 00000+0 18992-3 0 9998 2 47508 97.2224 171.2583 0006612 5.6146 354.5170 15.34213478293193 HAWK-3B 1 48931U 21059BE 26127.09342503 .00032839 00000+0 31784-3 0 9996 2 48931 97.6696 320.0218 0006123 119.1837 241.0036 15.66332603271414 HAWK-3C 1 48948U 21059BX 26127.09314831 .00037521 00000+0 36260-3 0 9994 2 48948 97.6823 325.6343 0006566 119.0744 241.1174 15.66342288271415 HAWK-3A 1 48957U 21059CG 26127.09300765 .00037094 00000+0 35856-3 0 9990 2 48957 97.6767 322.8733 0006195 118.2367 241.9518 15.66341156271417 HAWK-5C 1 52754U 22057Y 26126.93664553 .00016644 00000+0 29927-3 0 9999 2 52754 97.6550 284.0126 0004299 205.3813 154.7227 15.49925353219956 HAWK-5B 1 52756U 22057AA 26126.93648074 .00015394 00000+0 27690-3 0 9997 2 52756 97.6558 282.3560 0004550 202.4017 157.7035 15.49930488219958 HAWK-5A 1 52757U 22057AB 26126.93625161 .00015597 00000+0 28052-3 0 9998 2 52757 97.6553 283.1896 0004771 204.2153 155.8874 15.49929262219959 HAWK-6B 1 55324U 23011A 26126.66804367 .00004592 00000+0 20178-3 0 9993 2 55324 40.4984 234.1699 0001679 102.9488 257.1509 15.22571355181510 HAWK-6C 1 55326U 23011C 26126.60180536 .00004561 00000+0 20047-3 0 9995 2 55326 40.4970 231.3986 0002080 79.6210 280.4834 15.22572153181512 HAWK-6A 1 55327U 23011D 26126.66744069 .00004584 00000+0 20147-3 0 9995 2 55327 40.4982 232.6370 0001698 75.9287 284.1711 15.22571065181521 HAWK-7A 1 56191U 23054P 26127.22301082 .00003866 00000+0 14891-3 0 9990 2 56191 97.2745 15.6038 0003478 148.9465 211.1981 15.26930135170770 HAWK-7B 1 56193U 23054R 26127.22294728 .00004576 00000+0 17575-3 0 9991 2 56193 97.2770 13.8530 0002534 146.9136 213.2262 15.26936199170773 HAWK-7C 1 56200U 23054Y 26127.22284415 .00004519 00000+0 17357-3 0 9997 2 56200 97.2748 14.6345 0003003 140.8482 219.2975 15.26935100170777